"read_dt","SO2 (ppb)","flags","PMT voltage (V)","lamp voltage (V)","lamp intensity (Hz)","internal temp (C)","react chamber temp (C)","sample flow (l/min)","pres (mmHg)","SO2 bkg (ppb)","SO2 coefficient"
2016-04-14 00:00:00,1721E-3,5C000400,-0724,0837,11194,024.3,045.3,0.262,757.5,01.16,0.508
2016-04-14 00:01:00,1905E-3,5C000400,-0724,0835,10945,024.3,045.3,0.261,757.5,01.16,0.508
2016-04-14 00:02:00,1919E-3,5C000400,-0724,0834,12110,024.4,045.3,0.262,757.5,01.16,0.508
2016-04-14 00:03:00,1766E-3,5C000400,-0724,0836,12425,024.4,045.3,0.261,757.5,01.16,0.508
2016-04-14 00:04:00,1945E-3,5C000400,-0724,0835,12186,024.3,045.3,0.262,757.5,01.16,0.508
2016-04-14 00:05:00,1869E-3,5C000400,-0724,0835,12376,024.4,045.3,0.261,757.5,01.16,0.508
2016-04-14 00:06:00,1803E-3,5C000400,-0724,0835,11013,024.4,045.3,0.262,757.5,01.16,0.508
2016-04-14 00:07:00,1844E-3,5C000400,-0724,0835,12232,024.4,045.3,0.261,757.4,01.16,0.508
2016-04-14 00:08:00,1896E-3,5C000400,-0724,0835,12295,024.4,045.3,0.262,757.4,01.16,0.508
2016-04-14 00:09:00,1839E-3,5C000410,-0724,0837,12440,024.4,045.3,0.261,757.4,01.16,0.508
2016-04-14 00:10:00,1680E-3,5C000400,-0724,0837,12056,024.4,045.3,0.262,757.4,01.16,0.508
2016-04-14 00:11:00,1846E-3,5C000400,-0724,0837,11064,024.4,045.3,0.262,757.5,01.16,0.508
2016-04-14 00:12:00,1856E-3,5C000400,-0724,0842,12317,024.4,045.3,0.262,757.5,01.16,0.508
2016-04-14 00:13:00,1792E-3,5C000400,-0724,0838,11397,024.4,045.4,0.261,757.4,01.16,0.508
2016-04-14 00:14:00,1755E-3,5C000400,-0724,0839,12191,024.4,045.3,0.261,757.4,01.16,0.508
2016-04-14 00:15:00,1685E-3,5C000400,-0724,0835,11265,024.4,045.3,0.261,757.5,01.16,0.508
2016-04-14 00:16:00,1814E-3,5C000400,-0724,0845,11767,024.4,045.4,0.261,757.4,01.16,0.508
2016-04-14 00:17:00,1747E-3,5C000400,-0724,0836,12604,024.4,045.3,0.261,757.5,01.16,0.508
2016-04-14 00:18:00,1701E-3,5C000400,-0724,0840,12300,024.4,045.3,0.261,757.5,01.16,0.508
2016-04-14 00:19:00,1873E-3,5C000400,-0724,0838,11504,024.4,045.3,0.261,757.5,01.16,0.508
2016-04-14 00:20:00,1870E-3,5C000400,-0724,0836,12254,024.4,045.3,0.261,757.5,01.16,0.508
2016-04-14 00:21:00,1941E-3,5C000400,-0724,0839,12244,024.4,045.3,0.261,757.5,01.16,0.508
2016-04-14 00:22:00,1959E-3,5C000400,-0724,0834,10052,024.4,045.3,0.261,757.5,01.16,0.508
2016-04-14 00:23:00,1870E-3,5C000400,-0724,0836,12339,024.4,045.3,0.261,757.5,01.16,0.508
2016-04-14 00:24:00,1803E-3,5C000400,-0724,0833,12497,024.4,045.4,0.261,757.5,01.16,0.508
2016-04-14 00:25:00,1680E-3,5C000400,-0724,0836,12048,024.5,045.4,0.261,757.5,01.16,0.508
2016-04-14 00:26:00,1984E-3,5C000400,-0724,0832,11028,024.5,045.3,0.262,757.5,01.16,0.508
2016-04-14 00:27:00,1758E-3,5C000410,-0724,0837,11166,024.5,045.4,0.261,757.5,01.16,0.508
2016-04-14 00:28:00,1754E-3,5C000400,-0724,0834,12465,024.5,045.3,0.261,757.5,01.16,0.508
2016-04-14 00:29:00,1750E-3,5C000400,-0724,0838,12362,024.5,045.3,0.262,757.5,01.16,0.508
2016-04-14 00:30:00,1807E-3,5C000410,-0724,0836,11389,024.5,045.3,0.261,757.5,01.16,0.508
2016-04-14 00:31:00,1786E-3,5C000400,-0724,0833,12252,024.5,045.3,0.261,757.5,01.16,0.508
2016-04-14 00:32:00,1818E-3,5C000400,-0724,0839,12373,024.5,045.3,0.261,757.5,01.16,0.508
2016-04-14 00:33:00,1799E-3,5C000400,-0724,0834,11130,024.5,045.3,0.261,757.5,01.16,0.508
2016-04-14 00:34:00,1903E-3,5C000400,-0724,0834,12099,024.5,045.3,0.261,757.5,01.16,0.508
2016-04-14 00:35:00,1854E-3,5C000400,-0724,0834,12265,024.5,045.3,0.261,757.5,01.16,0.508
2016-04-14 00:36:00,1843E-3,5C000410,-0724,0841,10108,024.5,045.3,0.261,757.5,01.16,0.508
2016-04-14 00:37:00,1888E-3,5C000400,-0724,0835,12320,024.5,045.3,0.261,757.5,01.16,0.508
2016-04-14 00:38:00,1887E-3,5C000400,-0724,0833,12258,024.5,045.3,0.261,757.5,01.16,0.508
2016-04-14 00:39:00,1895E-3,5C000400,-0724,0834,12171,024.5,045.3,0.261,757.5,01.16,0.508
2016-04-14 00:40:00,1852E-3,5C000400,-0724,0833,12093,024.5,045.3,0.261,757.5,01.16,0.508
2016-04-14 00:41:00,1733E-3,5C000400,-0724,0835,12574,024.5,045.3,0.261,757.5,01.16,0.508
2016-04-14 00:42:00,1911E-3,5C000400,-0724,0835,12167,024.6,045.3,0.261,757.5,01.16,0.508
2016-04-14 00:43:00,1833E-3,5C000400,-0724,0837,12007,024.5,045.3,0.261,757.5,01.16,0.508
2016-04-14 00:44:00,1691E-3,5C000400,-0724,0833,12340,024.5,045.3,0.261,757.5,01.16,0.508
2016-04-14 00:45:00,1861E-3,5C000400,-0724,0835,12322,024.6,045.3,0.261,757.5,01.16,0.508
2016-04-14 00:46:00,1900E-3,5C000400,-0724,0834,12143,024.6,045.3,0.261,757.5,01.16,0.508
2016-04-14 00:47:00,1850E-3,5C000400,-0724,0835,12220,024.6,045.3,0.261,757.5,01.16,0.508
2016-04-14 00:48:00,1883E-3,5C000400,-0724,0831,12287,024.6,045.3,0.261,757.5,01.16,0.508
2016-04-14 00:49:00,1661E-3,5C000400,-0724,0836,11202,024.6,045.3,0.261,757.5,01.16,0.508
2016-04-14 00:50:00,1792E-3,5C000400,-0724,0835,12514,024.6,045.4,0.261,757.5,01.16,0.508
2016-04-14 00:51:00,1828E-3,5C000400,-0724,0834,9914,024.6,045.3,0.261,757.5,01.16,0.508
2016-04-14 00:52:00,1654E-3,5C000400,-0724,0838,9924,024.6,045.3,0.261,757.5,01.16,0.508
2016-04-14 00:53:00,1805E-3,5C000400,-0724,0836,12220,024.6,045.3,0.261,757.5,01.16,0.508
2016-04-14 00:54:00,1878E-3,5C000400,-0724,0834,12321,024.6,045.3,0.261,757.5,01.16,0.508
2016-04-14 00:55:00,1877E-3,5C000400,-0724,0836,12436,024.6,045.3,0.261,757.5,01.16,0.508
2016-04-14 00:56:00,1725E-3,5C000400,-0724,0836,11278,024.6,045.4,0.261,757.4,01.16,0.508
2016-04-14 00:57:00,1780E-3,5C000400,-0724,0836,11036,024.6,045.3,0.261,757.4,01.16,0.508
2016-04-14 00:58:00,1956E-3,5C000400,-0724,0837,10016,024.6,045.3,0.261,757.5,01.16,0.508
2016-04-14 00:59:00,1857E-3,5C000400,-0724,0836,12201,024.6,045.3,0.261,757.5,01.16,0.508
2016-04-14 01:00:00,1810E-3,5C000400,-0724,0837,12163,024.6,045.3,0.261,757.5,01.16,0.508
2016-04-14 01:01:00,1817E-3,5C000400,-0724,0836,11108,024.7,045.3,0.261,757.5,01.16,0.508
2016-04-14 01:02:00,1837E-3,5C000400,-0724,0834,12131,024.7,045.3,0.261,757.5,01.16,0.508
2016-04-14 01:03:00,1789E-3,5C000400,-0724,0837,11227,024.7,045.3,0.261,757.5,01.16,0.508
2016-04-14 01:04:00,1828E-3,5C000400,-0724,0834,9784,024.7,045.3,0.261,757.5,01.16,0.508
2016-04-14 01:05:00,1826E-3,5C000400,-0724,0836,12348,024.7,045.4,0.261,757.5,01.16,0.508
2016-04-14 01:06:00,1870E-3,5C000400,-0724,0836,12278,024.7,045.3,0.261,757.5,01.16,0.508
2016-04-14 01:07:00,1805E-3,5C000400,-0724,0838,10976,024.7,045.3,0.261,757.4,01.16,0.508
2016-04-14 01:08:00,1855E-3,5C000400,-0724,0839,11440,024.7,045.3,0.261,757.4,01.16,0.508
2016-04-14 01:09:00,1880E-3,5C000400,-0724,0836,12215,024.8,045.3,0.261,757.4,01.16,0.508
2016-04-14 01:10:00,1791E-3,5C000400,-0724,0835,12260,024.7,045.3,0.261,757.4,01.16,0.508
2016-04-14 01:11:00,1827E-3,5C000400,-0724,0837,12164,024.7,045.3,0.260,757.5,01.16,0.508
2016-04-14 01:12:00,1798E-3,5C000400,-0724,0837,12260,024.7,045.3,0.260,757.5,01.16,0.508
2016-04-14 01:13:00,1903E-3,5C000400,-0724,0836,12248,024.7,045.3,0.260,757.5,01.16,0.508
2016-04-14 01:14:00,1770E-3,5C000400,-0724,0836,12080,024.8,045.4,0.260,757.5,01.16,0.508
2016-04-14 01:15:00,1886E-3,5C000400,-0724,0836,12239,024.8,045.3,0.260,757.5,01.16,0.508
2016-04-14 01:16:00,1818E-3,5C000400,-0724,0835,11115,024.8,045.3,0.260,757.5,01.16,0.508
2016-04-14 01:17:00,1755E-3,5C000400,-0724,0837,12342,024.8,045.3,0.260,757.5,01.16,0.508
2016-04-14 01:18:00,1876E-3,5C000400,-0724,0838,12588,024.8,045.4,0.260,757.5,01.16,0.508
2016-04-14 01:19:00,1829E-3,5C000400,-0724,0836,12337,024.8,045.4,0.260,757.5,01.16,0.508
2016-04-14 01:20:00,1779E-3,5C000400,-0724,0837,11197,024.8,045.4,0.261,757.5,01.16,0.508
2016-04-14 01:21:00,1783E-3,5C000400,-0724,0835,11134,024.9,045.3,0.261,757.5,01.16,0.508
2016-04-14 01:22:00,1839E-3,5C000400,-0724,0835,10953,024.9,045.3,0.261,757.5,01.16,0.508
2016-04-14 01:23:00,1855E-3,5C000400,-0724,0836,12128,024.9,045.3,0.261,757.5,01.16,0.508
2016-04-14 01:24:00,1784E-3,5C000400,-0724,0833,11108,024.9,045.3,0.261,757.5,01.16,0.508
2016-04-14 01:25:00,1905E-3,5C000400,-0724,0837,12161,024.9,045.3,0.261,757.5,01.16,0.508
2016-04-14 01:26:00,1848E-3,5C000400,-0724,0836,12110,024.9,045.4,0.260,757.5,01.16,0.508
2016-04-14 01:27:00,1706E-3,5C000400,-0724,0834,12102,024.9,045.4,0.260,757.5,01.16,0.508
2016-04-14 01:28:00,1718E-3,5C000400,-0724,0837,12184,024.9,045.3,0.261,757.5,01.16,0.508
2016-04-14 01:29:00,1694E-3,5C000400,-0724,0840,11187,024.9,045.3,0.261,757.5,01.16,0.508
2016-04-14 01:30:00,1915E-3,5C000400,-0724,0835,12289,024.9,045.3,0.260,757.5,01.16,0.508
2016-04-14 01:31:00,1843E-3,5C000400,-0724,0835,12090,025.0,045.3,0.261,757.5,01.16,0.508
2016-04-14 01:32:00,1739E-3,5C000400,-0724,0833,12192,025.0,045.3,0.260,757.6,01.16,0.508
2016-04-14 01:33:00,1730E-3,5C000400,-0724,0836,12152,025.0,045.3,0.261,757.6,01.16,0.508
2016-04-14 01:34:00,1965E-3,5C000400,-0724,0835,12079,024.9,045.4,0.260,757.6,01.16,0.508
2016-04-14 01:35:00,1834E-3,5C000400,-0724,0837,12285,025.0,045.3,0.260,757.6,01.16,0.508
2016-04-14 01:36:00,1938E-3,5C000410,-0724,0835,12282,025.0,045.3,0.261,757.6,01.16,0.508
2016-04-14 01:37:00,1633E-3,5C000400,-0724,0836,12004,025.0,045.3,0.260,757.6,01.16,0.508
2016-04-14 01:38:00,1887E-3,5C000400,-0724,0835,12105,025.0,045.3,0.260,757.6,01.16,0.508
2016-04-14 01:39:00,1934E-3,5C000400,-0724,0835,12132,025.0,045.3,0.260,757.6,01.16,0.508
2016-04-14 01:40:00,1858E-3,5C000400,-0724,0834,12059,025.0,045.3,0.260,757.6,01.16,0.508
2016-04-14 01:41:00,1885E-3,5C000400,-0724,0836,12332,025.0,045.4,0.260,757.6,01.16,0.508
2016-04-14 01:42:00,1765E-3,5C000400,-0724,0836,12318,025.0,045.3,0.260,757.6,01.16,0.508
2016-04-14 01:43:00,1818E-3,5C000400,-0724,0836,12155,025.0,045.4,0.260,757.6,01.16,0.508
2016-04-14 01:44:00,1969E-3,5C000400,-0724,0836,12285,025.0,045.4,0.260,757.6,01.16,0.508
2016-04-14 01:45:00,1800E-3,5C000400,-0724,0836,11030,025.0,045.4,0.260,757.6,01.16,0.508
2016-04-14 01:46:00,1774E-3,5C000400,-0724,0835,12076,025.0,045.4,0.261,757.6,01.16,0.508
2016-04-14 01:47:00,1857E-3,5C000400,-0724,0834,12044,025.0,045.4,0.260,757.6,01.16,0.508
2016-04-14 01:48:00,1910E-3,5C000400,-0724,0834,12206,025.1,045.4,0.260,757.6,01.16,0.508
2016-04-14 01:49:00,1868E-3,5C000400,-0724,0834,12058,025.1,045.4,0.260,757.6,01.16,0.508
2016-04-14 01:50:00,1884E-3,5C000400,-0724,0837,12192,025.1,045.3,0.260,757.6,01.16,0.508
2016-04-14 01:51:00,1966E-3,5C000400,-0724,0838,12375,025.1,045.3,0.260,757.6,01.16,0.508
2016-04-14 01:52:00,1910E-3,5C000400,-0724,0838,12064,025.1,045.3,0.260,757.6,01.16,0.508
2016-04-14 01:53:00,1798E-3,5C000400,-0724,0836,11144,025.1,045.4,0.260,757.6,01.16,0.508
2016-04-14 01:54:00,1820E-3,5C000400,-0724,0835,12076,025.1,045.4,0.260,757.6,01.16,0.508
2016-04-14 01:55:00,1876E-3,5C000400,-0724,0841,11225,025.1,045.4,0.260,757.6,01.16,0.508
2016-04-14 01:56:00,1785E-3,5C000400,-0724,0839,11483,025.1,045.3,0.260,757.6,01.16,0.508
2016-04-14 01:57:00,1688E-3,5C000400,-0724,0836,12025,025.1,045.4,0.260,757.6,01.16,0.508
2016-04-14 01:58:00,1875E-3,5C000400,-0724,0835,12012,025.2,045.4,0.260,757.6,01.16,0.508
2016-04-14 01:59:00,1935E-3,5C000400,-0724,0837,12062,025.1,045.4,0.260,757.6,01.16,0.508
2016-04-14 02:00:00,1816E-3,5C000400,-0724,0835,12059,025.1,045.4,0.260,757.6,01.16,0.508
2016-04-14 02:01:00,1916E-3,5C000400,-0724,0836,12269,025.2,045.4,0.260,757.6,01.16,0.508
2016-04-14 02:02:00,1732E-3,5C000400,-0724,0838,12318,025.2,045.3,0.260,757.5,01.16,0.508
2016-04-14 02:03:00,1873E-3,5C000400,-0724,0834,12261,025.2,045.4,0.260,757.6,01.16,0.508
2016-04-14 02:04:00,1884E-3,5C000400,-0724,0834,12162,025.2,045.4,0.260,757.5,01.16,0.508
2016-04-14 02:05:00,1790E-3,5C000400,-0724,0836,12233,025.2,045.4,0.260,757.5,01.16,0.508
2016-04-14 02:06:00,1870E-3,5C000400,-0724,0835,12466,025.2,045.3,0.260,757.5,01.16,0.508
2016-04-14 02:07:00,1836E-3,5C000400,-0724,0833,12193,025.2,045.3,0.260,757.4,01.16,0.508
2016-04-14 02:08:00,1852E-3,5C000400,-0724,0835,12398,025.2,045.3,0.260,757.4,01.16,0.508
2016-04-14 02:09:00,1802E-3,5C000400,-0724,0835,12175,025.2,045.3,0.260,757.5,01.16,0.508
2016-04-14 02:10:00,1859E-3,5C000400,-0724,0835,12209,025.3,045.3,0.260,757.5,01.16,0.508
2016-04-14 02:11:00,1869E-3,5C000400,-0724,0835,12273,025.3,045.4,0.260,757.5,01.16,0.508
2016-04-14 02:12:00,1822E-3,5C000400,-0724,0835,12233,025.3,045.3,0.260,757.5,01.16,0.508
2016-04-14 02:13:00,1828E-3,5C000400,-0724,0834,9952,025.3,045.3,0.260,757.5,01.16,0.508
2016-04-14 02:14:00,1789E-3,5C000400,-0724,0834,12106,025.3,045.4,0.260,757.5,01.16,0.508
2016-04-14 02:15:00,1857E-3,5C000400,-0724,0836,12294,025.3,045.4,0.260,757.5,01.16,0.508
2016-04-14 02:16:00,1649E-3,5C000400,-0724,0836,12396,025.3,045.4,0.260,757.5,01.16,0.508
2016-04-14 02:17:00,1965E-3,5C000400,-0724,0835,11394,025.3,045.4,0.260,757.5,01.16,0.508
2016-04-14 02:18:00,1846E-3,5C000400,-0724,0837,12402,025.3,045.4,0.260,757.5,01.16,0.508
2016-04-14 02:19:00,1724E-3,5C000400,-0724,0835,12288,025.3,045.4,0.260,757.5,01.16,0.508
2016-04-14 02:20:00,1818E-3,5C000400,-0724,0834,12164,025.3,045.3,0.259,757.5,01.16,0.508
2016-04-14 02:21:00,1984E-3,5C000400,-0724,0833,12275,025.3,045.3,0.259,757.5,01.16,0.508
2016-04-14 02:22:00,1844E-3,5C000400,-0724,0834,11204,025.4,045.4,0.259,757.5,01.16,0.508
2016-04-14 02:23:00,1860E-3,5C000400,-0724,0838,11383,025.4,045.4,0.260,757.5,01.16,0.508
2016-04-14 02:24:00,2007E-3,5C000400,-0724,0835,12234,025.4,045.4,0.260,757.5,01.16,0.508
2016-04-14 02:25:00,1782E-3,5C000400,-0724,0836,12294,025.4,045.3,0.260,757.5,01.16,0.508
2016-04-14 02:26:00,1655E-3,5C000400,-0724,0835,11099,025.4,045.3,0.260,757.5,01.16,0.508
2016-04-14 02:27:00,1909E-3,5C000400,-0724,0838,12281,025.4,045.4,0.259,757.5,01.16,0.508
2016-04-14 02:28:00,1847E-3,5C000400,-0724,0836,12219,025.4,045.4,0.260,757.5,01.16,0.508
2016-04-14 02:29:00,1948E-3,5C000400,-0724,0835,12227,025.4,045.4,0.260,757.5,01.16,0.508
2016-04-14 02:30:00,1888E-3,5C000400,-0724,0836,12257,025.4,045.4,0.259,757.5,01.16,0.508
2016-04-14 02:31:00,1838E-3,5C000400,-0724,0836,11109,025.4,045.3,0.260,757.5,01.16,0.508
2016-04-14 02:32:00,1921E-3,5C000400,-0724,0837,12370,025.5,045.4,0.259,757.5,01.16,0.508
2016-04-14 02:33:00,1855E-3,5C000400,-0724,0836,12443,025.5,045.3,0.260,757.5,01.16,0.508
2016-04-14 02:34:00,1793E-3,5C000400,-0724,0840,12479,025.5,045.4,0.259,757.5,01.16,0.508
2016-04-14 02:35:00,1867E-3,5C000400,-0724,0835,10988,025.5,045.4,0.260,757.5,01.16,0.508
2016-04-14 02:36:00,1782E-3,5C000410,-0724,0836,9916,025.5,045.4,0.260,757.5,01.16,0.508
2016-04-14 02:37:00,1976E-3,5C000400,-0724,0836,12344,025.5,045.4,0.259,757.5,01.16,0.508
2016-04-14 02:38:00,1713E-3,5C000400,-0724,0837,12700,025.5,045.4,0.259,757.5,01.16,0.508
2016-04-14 02:39:00,1837E-3,5C000400,-0724,0835,12228,025.5,045.4,0.260,757.5,01.16,0.508
2016-04-14 02:40:00,1834E-3,5C000400,-0724,0835,12177,025.5,045.4,0.259,757.5,01.16,0.508
2016-04-14 02:41:00,1855E-3,5C000400,-0724,0837,12263,025.5,045.4,0.260,757.5,01.16,0.508
2016-04-14 02:42:00,2030E-3,5C000400,-0724,0836,12147,025.6,045.4,0.259,757.5,01.16,0.508
2016-04-14 02:43:00,1915E-3,5C000400,-0724,0834,12436,025.6,045.4,0.259,757.5,01.16,0.508
2016-04-14 02:44:00,1909E-3,5C000400,-0724,0835,12219,025.6,045.4,0.259,757.5,01.16,0.508
2016-04-14 02:45:00,1741E-3,5C000400,-0724,0836,12227,025.6,045.4,0.259,757.5,01.16,0.508
2016-04-14 02:46:00,1844E-3,5C000410,-0724,0837,12344,025.6,045.4,0.259,757.5,01.16,0.508
2016-04-14 02:47:00,1868E-3,5C000400,-0724,0835,10777,025.6,045.4,0.259,757.5,01.16,0.508
2016-04-14 02:48:00,1923E-3,5C000400,-0724,0834,12279,025.6,045.4,0.259,757.5,01.16,0.508
2016-04-14 02:49:00,1827E-3,5C000400,-0724,0838,12436,025.6,045.4,0.259,757.5,01.16,0.508
2016-04-14 02:50:00,1811E-3,5C000400,-0724,0835,11059,025.6,045.4,0.259,757.5,01.16,0.508
2016-04-14 02:51:00,1899E-3,5C000400,-0724,0837,10994,025.6,045.4,0.259,757.5,01.16,0.508
2016-04-14 02:52:00,1751E-3,5C000400,-0724,0837,11131,025.7,045.4,0.259,757.5,01.16,0.508
2016-04-14 02:53:00,1831E-3,5C000400,-0724,0834,12248,025.7,045.4,0.259,757.5,01.16,0.508
2016-04-14 02:54:00,1806E-3,5C000400,-0724,0837,12268,025.7,045.4,0.259,757.5,01.16,0.508
2016-04-14 02:55:00,1944E-3,5C000400,-0724,0835,12410,025.7,045.4,0.259,757.5,01.16,0.508
2016-04-14 02:56:00,1887E-3,5C000400,-0724,0835,12263,025.7,045.4,0.259,757.5,01.16,0.508
2016-04-14 02:57:00,1982E-3,5C000400,-0724,0834,12248,025.7,045.4,0.259,757.6,01.16,0.508
2016-04-14 02:58:00,1897E-3,5C000400,-0724,0837,12125,025.7,045.4,0.259,757.5,01.16,0.508
2016-04-14 02:59:00,1985E-3,5C000400,-0724,0836,12198,025.7,045.4,0.259,757.5,01.16,0.508
2016-04-14 03:00:00,1791E-3,5C000400,-0724,0835,12241,025.8,045.4,0.259,757.5,01.16,0.508
2016-04-14 03:01:00,1891E-3,5C000400,-0724,0835,12095,025.8,045.4,0.259,757.6,01.16,0.508
2016-04-14 03:02:00,1817E-3,5C000400,-0724,0835,11976,025.8,045.4,0.259,757.5,01.16,0.508
2016-04-14 03:03:00,1905E-3,5C000400,-0724,0834,12240,025.7,045.4,0.259,757.6,01.16,0.508
2016-04-14 03:04:00,1798E-3,5C000400,-0724,0835,12110,025.8,045.4,0.259,757.6,01.16,0.508
2016-04-14 03:05:00,1746E-3,5C000400,-0724,0835,12257,025.8,045.4,0.259,757.6,01.16,0.508
2016-04-14 03:06:00,1909E-3,5C000400,-0724,0834,12059,025.9,045.4,0.259,757.6,01.16,0.508
2016-04-14 03:07:00,1868E-3,5C000400,-0724,0836,12089,025.8,045.4,0.260,757.6,01.16,0.508
2016-04-14 03:08:00,1983E-3,5C000400,-0724,0835,12238,025.9,045.4,0.259,757.5,01.16,0.508
2016-04-14 03:09:00,1835E-3,5C000400,-0724,0835,12177,025.9,045.4,0.259,757.5,01.16,0.508
2016-04-14 03:10:00,1836E-3,5C000400,-0724,0834,12177,025.8,045.4,0.259,757.5,01.16,0.508
2016-04-14 03:11:00,1925E-3,5C000400,-0724,0836,12089,025.9,045.4,0.259,757.5,01.16,0.508
2016-04-14 03:12:00,1838E-3,5C000400,-0724,0834,12243,025.9,045.4,0.259,757.5,01.16,0.508
2016-04-14 03:13:00,1899E-3,5C000400,-0724,0836,12205,025.9,045.4,0.259,757.5,01.16,0.508
2016-04-14 03:14:00,1791E-3,5C000400,-0724,0836,12351,025.9,045.4,0.259,757.5,01.16,0.508
2016-04-14 03:15:00,1753E-3,5C000400,-0724,0836,11966,025.9,045.4,0.258,757.5,01.16,0.508
2016-04-14 03:16:00,1816E-3,5C000400,-0724,0837,10974,025.9,045.4,0.258,757.5,01.16,0.508
2016-04-14 03:17:00,1817E-3,5C000400,-0724,0835,12168,025.9,045.4,0.259,757.5,01.16,0.508
2016-04-14 03:18:00,1871E-3,5C000400,-0724,0833,12094,026.0,045.4,0.259,757.5,01.16,0.508
2016-04-14 03:19:00,1815E-3,5C000400,-0724,0835,12299,026.0,045.4,0.259,757.5,01.16,0.508
2016-04-14 03:20:00,1967E-3,5C000400,-0724,0835,12341,026.0,045.4,0.259,757.5,01.16,0.508
2016-04-14 03:21:00,1836E-3,5C000400,-0724,0836,11036,026.0,045.4,0.259,757.5,01.16,0.508
2016-04-14 03:22:00,1767E-3,5C000400,-0724,0836,12240,026.0,045.4,0.258,757.5,01.16,0.508
2016-04-14 03:23:00,1897E-3,5C000400,-0724,0837,12012,026.0,045.4,0.259,757.5,01.16,0.508
2016-04-14 03:24:00,1886E-3,5C000400,-0724,0835,12190,026.0,045.4,0.259,757.5,01.16,0.508
2016-04-14 03:25:00,1729E-3,5C000400,-0724,0837,12258,026.0,045.4,0.259,757.5,01.16,0.508
2016-04-14 03:26:00,1904E-3,5C000400,-0724,0836,12372,026.1,045.4,0.259,757.5,01.16,0.508
2016-04-14 03:27:00,1871E-3,5C000400,-0724,0835,11041,026.0,045.4,0.259,757.5,01.16,0.508
2016-04-14 03:28:00,1904E-3,5C000400,-0724,0837,12169,026.1,045.4,0.258,757.5,01.16,0.508
2016-04-14 03:29:00,1817E-3,5C000400,-0724,0835,12236,026.1,045.4,0.259,757.5,01.16,0.508
2016-04-14 03:30:00,1893E-3,5C000400,-0724,0836,12458,026.1,045.3,0.259,757.5,01.16,0.508
2016-04-14 03:31:00,1792E-3,5C000400,-0724,0837,12426,026.1,045.3,0.258,757.5,01.16,0.508
2016-04-14 03:32:00,1900E-3,5C000400,-0724,0837,11125,026.1,045.4,0.259,757.5,01.16,0.508
2016-04-14 03:33:00,1923E-3,5C000400,-0724,0837,12054,026.1,045.4,0.258,757.5,01.16,0.508
2016-04-14 03:34:00,1866E-3,5C000400,-0724,0835,12022,026.2,045.4,0.259,757.5,01.16,0.508
2016-04-14 03:35:00,1925E-3,5C000400,-0724,0836,12142,026.2,045.4,0.258,757.5,01.16,0.508
2016-04-14 03:36:00,1770E-3,5C000400,-0724,0836,12183,026.2,045.4,0.259,757.5,01.16,0.508
2016-04-14 03:37:00,1787E-3,5C000400,-0724,0837,12078,026.2,045.4,0.258,757.5,01.16,0.508
2016-04-14 03:38:00,1713E-3,5C000400,-0724,0836,12268,026.2,045.4,0.258,757.6,01.16,0.508
2016-04-14 03:39:00,1820E-3,5C000400,-0724,0837,12133,026.2,045.4,0.258,757.6,01.16,0.508
2016-04-14 03:40:00,1820E-3,5C000400,-0724,0835,12131,026.2,045.4,0.258,757.6,01.16,0.508
2016-04-14 03:41:00,1903E-3,5C000400,-0724,0836,12093,026.2,045.4,0.258,757.6,01.16,0.508
2016-04-14 03:42:00,1916E-3,5C000400,-0724,0836,12139,026.2,045.4,0.258,757.6,01.16,0.508
2016-04-14 03:43:00,1877E-3,5C000400,-0724,0836,12132,026.2,045.4,0.258,757.6,01.16,0.508
2016-04-14 03:44:00,1775E-3,5C000400,-0724,0836,12161,026.3,045.4,0.258,757.6,01.16,0.508
2016-04-14 03:45:00,1937E-3,5C000400,-0724,0838,10894,026.3,045.4,0.258,757.6,01.16,0.508
2016-04-14 03:46:00,1852E-3,5C000400,-0724,0836,12148,026.3,045.4,0.258,757.6,01.16,0.508
2016-04-14 03:47:00,1989E-3,5C000400,-0724,0837,12301,026.3,045.4,0.258,757.6,01.16,0.508
2016-04-14 03:48:00,1817E-3,5C000400,-0724,0836,12329,026.3,045.4,0.258,757.6,01.16,0.508
2016-04-14 03:49:00,1762E-3,5C000400,-0724,0836,12183,026.3,045.4,0.258,757.6,01.16,0.508
2016-04-14 03:50:00,1927E-3,5C000400,-0724,0836,12216,026.3,045.4,0.258,757.6,01.16,0.508
2016-04-14 03:51:00,1900E-3,5C000400,-0724,0837,11041,026.3,045.4,0.258,757.6,01.16,0.508
2016-04-14 03:52:00,1798E-3,5C000400,-0724,0838,12227,026.4,045.4,0.258,757.6,01.16,0.508
2016-04-14 03:53:00,1864E-3,5C000400,-0724,0836,12128,026.3,045.4,0.258,757.6,01.16,0.508
2016-04-14 03:54:00,1802E-3,5C000400,-0724,0838,11377,026.4,045.4,0.258,757.6,01.16,0.508
2016-04-14 03:55:00,1865E-3,5C000400,-0724,0835,12447,026.4,045.4,0.258,757.6,01.16,0.508
2016-04-14 03:56:00,1707E-3,5C000400,-0724,0835,12369,026.4,045.4,0.258,757.6,01.16,0.508
2016-04-14 03:57:00,1859E-3,5C000400,-0724,0837,12218,026.4,045.4,0.258,757.6,01.16,0.508
2016-04-14 03:58:00,1836E-3,5C000400,-0724,0837,12076,026.4,045.4,0.258,757.7,01.16,0.508
2016-04-14 03:59:00,1846E-3,5C000400,-0724,0836,12234,026.4,045.4,0.258,757.7,01.16,0.508
2016-04-14 04:00:00,1802E-3,5C000400,-0724,0837,12239,026.4,045.4,0.258,757.7,01.16,0.508
2016-04-14 04:01:00,1818E-3,5C000400,-0724,0836,12193,026.4,045.4,0.257,757.7,01.16,0.508
2016-04-14 04:02:00,1813E-3,5C000400,-0724,0836,12098,026.4,045.4,0.258,757.7,01.16,0.508
2016-04-14 04:03:00,1778E-3,5C000400,-0724,0836,11070,026.5,045.4,0.258,757.7,01.16,0.508
2016-04-14 04:04:00,1749E-3,5C000400,-0724,0837,10848,026.5,045.4,0.258,757.7,01.16,0.508
2016-04-14 04:05:00,1776E-3,5C000400,-0724,0834,12166,026.5,045.4,0.258,757.7,01.16,0.508
2016-04-14 04:06:00,1853E-3,5C000400,-0724,0836,11949,026.5,045.4,0.258,757.7,01.16,0.508
2016-04-14 04:07:00,1620E-3,5C000400,-0724,0837,12590,026.5,045.4,0.258,757.7,01.16,0.508
2016-04-14 04:08:00,2044E-3,5C000400,-0724,0833,12202,026.5,045.4,0.258,757.7,01.16,0.508
2016-04-14 04:09:00,1913E-3,5C000400,-0724,0836,12128,026.5,045.4,0.258,757.7,01.16,0.508
2016-04-14 04:10:00,1784E-3,5C000400,-0724,0836,12440,026.5,045.4,0.258,757.7,01.16,0.508
2016-04-14 04:11:00,1875E-3,5C000400,-0724,0835,11985,026.5,045.4,0.258,757.7,01.16,0.508
2016-04-14 04:12:00,1906E-3,5C000400,-0724,0834,12290,026.5,045.4,0.258,757.7,01.16,0.508
2016-04-14 04:13:00,1788E-3,5C000400,-0724,0833,12208,026.6,045.4,0.257,757.7,01.16,0.508
2016-04-14 04:14:00,1878E-3,5C000400,-0724,0834,12177,026.6,045.4,0.258,757.7,01.16,0.508
2016-04-14 04:15:00,1871E-3,5C000400,-0724,0836,11053,026.6,045.4,0.258,757.7,01.16,0.508
2016-04-14 04:16:00,1937E-3,5C000400,-0724,0833,12122,026.6,045.4,0.258,757.7,01.16,0.508
2016-04-14 04:17:00,1835E-3,5C000400,-0724,0833,12162,026.6,045.4,0.258,757.7,01.16,0.508
2016-04-14 04:18:00,1896E-3,5C000400,-0724,0834,12358,026.6,045.4,0.257,757.7,01.16,0.508
2016-04-14 04:19:00,1799E-3,5C000400,-0724,0834,11095,026.6,045.4,0.258,757.7,01.16,0.508
2016-04-14 04:20:00,1942E-3,5C000400,-0724,0834,12106,026.6,045.4,0.258,757.8,01.16,0.508